[[{"header":{"parameterUnit":"m.s-1","parameterCategory":1,"la1":30.2991,"la2":30.254,"lo1":-89.0895,"lo2":-89.0444,"dx":0.0017,"dy":0.0017,"nx":28,"ny":28,"refTime":"2023-02-06T15:00:00:Z","depth":0,"parameterNumber":2,"parameterNumberName":"U-component_of_WINDS"},"data":[0,0,0,0,0,0,0,0,0,0,0,0,0,0,0,0,0,0,0,0,0,0,0,0,0,0,0,0,0,0,0,0,0,0,0,0,0,0,0,0,0,0,0,0,0,0,0,0,0,0,0,0,0,0,0,0,0,0,-2.7156,-2.7156,0,-2.7168,-2.7168,-2.7168,-2.7101,-2.7099,-2.7098,-2.7096,-2.7109,-2.7111,-2.7113,0,0,0,0,0,0,0,0,0,0,0,0,0,-2.7078,-2.708,-2.7156,-2.7156,-2.7156,-2.7168,-2.7168,-2.7168,-2.7102,-2.7099,-2.7097,-2.7095,-2.7108,-2.7111,-2.7113,0,0,0,0,0,0,0,0,0,0,0,0,0,-2.7103,-2.7081,-2.7156,-2.7124,-2.7122,-2.7168,-2.7168,-2.7168,-2.7102,-2.7099,-2.7096,-2.7094,-2.7107,-2.7111,-2.7114,-2.7191,0,0,-2.7124,-2.7125,0,0,0,0,0,0,0,0,-2.7102,-2.7106,-2.7129,-2.7126,-2.7124,-2.713,-2.7145,-2.7176,-2.7103,-2.711,-2.7096,-2.7092,-2.7118,-2.7121,-2.7129,-2.7191,-2.7192,-2.7124,-2.7126,-2.7127,-2.7128,0,0,0,0,0,0,0,-2.71,-2.7105,-2.716,-2.7129,-2.7126,-2.7111,-2.7111,-2.7151,-2.713,-2.7109,-2.7104,-2.7106,-2.7116,-2.7126,-2.7129,-2.7192,-2.7124,-2.7127,-2.7129,-2.713,-2.7321,-2.7324,0,0,0,0,0,0,-2.7103,-2.7104,-2.716,-2.7161,-2.7106,-2.7114,-2.7115,-2.7131,-2.7129,-2.7126,-2.7109,-2.7103,-2.7122,-2.7125,-2.7129,-2.7221,-2.7127,-2.713,-2.7132,-2.7318,-2.7322,-2.7325,0,0,0,0,0,0,-2.7101,-2.7108,-2.7159,-2.7131,-2.7137,-2.7119,-2.7137,-2.7133,-2.7142,-2.7129,-2.7125,-2.7122,-2.712,-2.7125,-2.7176,-2.722,-2.7132,-2.7134,-2.7314,-2.7319,-2.7324,-2.7404,0,0,0,0,0,0,-2.7099,-2.7108,-2.7136,-2.7132,-2.7138,-2.7206,-2.714,-2.7135,-2.7148,-2.7141,-2.7141,-2.7138,-2.7118,-2.7172,-2.718,-2.7223,-2.7137,-2.731,-2.7317,-2.7322,-2.7397,-2.741,-2.7422,0,0,0,0,0,-2.7097,-2.7158,-2.7138,-2.7145,-2.7173,-2.7208,-2.7212,-2.7187,-2.7151,-2.718,-2.7173,-2.7138,-2.7214,-2.7178,-2.7186,-2.7231,-2.7307,-2.7315,-2.7322,-2.7391,-2.7408,-2.7422,0,0,0,0,0,0,-2.7166,-2.7156,-2.7134,-2.7196,-2.7204,-2.7197,-2.7232,-2.7205,-2.7223,-2.7216,-2.7185,-2.7186,-2.7243,-2.7242,-2.7202,-2.7307,-2.7255,-2.7264,-2.7305,-2.7321,-2.7333,-2.7332,-2.714,0,0,0,0,0,-2.7189,-2.7218,-2.7208,-2.7263,-2.7268,-2.725,-2.7264,-2.7245,-2.7252,-2.7255,-2.7251,-2.7259,-2.7285,-2.7303,-2.7326,-2.7397,-2.7397,-2.7432,-2.7445,-2.7455,-2.7463,-2.7503,-2.7519,-2.7349,-2.7349,-2.7349,0,0,-2.7236,-2.7234,-2.7254,-2.7277,-2.7281,-2.7313,-2.7253,-2.7288,-2.7312,-2.726,-2.7309,-2.7307,-2.7315,-2.7377,-2.7404,-2.7378,-2.7511,-2.7464,-2.7472,-2.7475,-2.7512,-2.7528,-2.7542,-2.7354,-2.7353,-2.7352,0,0,-2.7337,-2.7338,-2.7385,-2.7391,-2.7398,-2.7386,-2.7397,-2.7396,-2.7392,-2.7441,-2.7404,-2.7432,-2.7477,-2.7485,-2.7495,-2.7603,-2.7573,-2.7612,-2.7677,-2.7716,-2.773,-2.7741,-2.7782,-2.7796,-2.762,-2.762,-2.762,0,-2.7394,-2.744,-2.7413,-2.7452,-2.7464,-2.742,-2.7468,-2.7475,-2.7489,-2.75,-2.747,-2.7527,-2.7529,-2.7594,-2.7621,-2.763,-2.7643,-2.7611,-2.773,-2.7741,-2.7752,-2.779,-2.7805,-2.7625,-2.7624,-2.7624,-2.7623,0,-2.7511,-2.7543,-2.7581,-2.7596,-2.7613,-2.7657,-2.7638,-2.7658,-2.7639,-2.763,-2.7682,-2.7684,-2.7707,-2.7721,-2.7702,-2.7784,-2.7768,-2.7735,-2.7682,-2.7773,-2.7809,-2.7823,-2.7632,-2.763,-2.7629,-2.7627,0,0,-2.7653,-2.7656,-2.767,-2.7678,-2.7684,-2.7709,-2.7752,-2.7776,-2.7795,-2.7807,-2.7843,-2.7884,-2.7854,-2.7865,-2.7847,-2.7882,-2.797,-2.7844,-2.7844,-2.7868,-2.8063,-2.8088,-2.8105,-2.795,-2.7953,-2.7955,-2.8063,0,-2.7753,-2.7826,-2.7805,-2.7878,-2.7909,-2.7869,-2.7907,-2.7915,-2.791,-2.7936,-2.793,-2.796,-2.7918,-2.7925,-2.7957,-2.7952,-2.8008,-2.7944,-2.7985,-2.7986,-2.7984,-2.8123,-2.8149,-2.825,-2.8076,-2.8078,-2.808,0,-2.7879,-2.7897,-2.7974,-2.7977,-2.7989,-2.8023,-2.8045,-2.807,-2.8081,-2.8074,-2.8089,-2.8064,-2.8108,-2.8056,-2.8118,-2.8075,-2.809,-2.8091,-2.8094,-2.8097,-2.8038,-2.813,-2.8282,-2.8298,-2.8101,-2.8099,-2.8098,0,-2.7977,-2.8021,-2.8073,-2.808,-2.8085,-2.8111,-2.8114,-2.8121,-2.8138,-2.8157,-2.8168,-2.8192,-2.8206,-2.8226,-2.8209,-2.8173,-2.8274,-2.822,-2.8271,-2.8272,-2.8294,-2.8293,-2.8451,-2.8304,-2.8304,-2.8303,-2.8303,0,-2.809,-2.8139,-2.8117,-2.8149,-2.8203,-2.818,-2.8235,-2.8234,-2.8241,-2.8274,-2.8241,-2.8272,-2.8248,-2.8278,-2.8266,-2.832,-2.8326,-2.8323,-2.8319,-2.8326,-2.8327,-2.8336,-2.8328,-2.8307,-2.8307,-2.8306,-2.8305,0,-2.8208,-2.8195,-2.825,-2.8251,-2.8253,-2.8293,-2.8294,-2.8325,-2.8318,-2.836,-2.8368,-2.8358,-2.8392,-2.8378,-2.8413,-2.8405,-2.8474,-2.8461,-2.8471,-2.8468,-2.852,-2.8516,-2.869,-2.8712,-2.8551,-2.8552,-2.8553,0,-2.8281,-2.8318,-2.8324,-2.8344,-2.8349,-2.8381,-2.8398,-2.8378,-2.8397,-2.8414,-2.8443,-2.8474,-2.8498,-2.8554,-2.855,-2.8578,-2.8565,-2.8625,-2.8569,-2.8576,-2.8568,-2.8566,-2.857,-2.8636,-2.8637,-2.8639,-2.864,0,-2.8413,-2.8406,-2.8431,-2.8457,-2.8478,-2.8497,-2.8512,-2.8531,-2.8511,-2.8535,-2.857,-2.8588,-2.8626,-2.8658,-2.8683,-2.8688,-2.8662,-2.8658,-2.8671,-2.8679,-2.8683,-2.8683,-2.8502,-2.8654,-2.8652,-2.8651,-2.8651,-2.865,-2.8511,-2.8543,-2.8553,-2.8584,-2.8594,-2.861,-2.864,-2.8638,-2.8666,-2.8695,-2.8682,-2.8722,-2.8735,-2.8766,-2.8775,-2.8807,-2.8784,-2.8803,-2.8808,-2.8814,-2.8821,-2.8679,-2.8812,-2.8811,-2.8811,-2.8811,-2.881,0,-2.8642,-2.8647,-2.8676,-2.87,-2.8725,-2.8699,-2.8716,-2.8739,-2.8775,-2.8788,-2.8813,-2.8855,-2.8886,-2.8886,-2.8916,-2.8943,-2.8932,-2.8951,-2.8949,-2.8951,-2.8839,-2.8825,-2.896,-2.896,-2.896,-2.896,-2.896,-2.896,-2.8713,-2.8766,-2.8761,-2.882,-2.8825,-2.8864,-2.8877,-2.8892,-2.8903,-2.8951,-2.8977,-2.8977,-2.8986,-2.9017,-2.9046,-2.9046,-2.9058,-2.9083,-2.9078,-2.8973,-2.8959,-2.8944,-2.8931,-2.9086,-2.9086,-2.9187,-2.9188,-2.9189]},{"header":{"parameterUnit":"m.s-1","parameterCategory":1,"la1":30.2991,"la2":30.254,"lo1":-89.0895,"lo2":-89.0444,"dx":0.0017,"dy":0.0017,"nx":28,"ny":28,"refTime":"2023-02-06T15:00:00:Z","depth":0,"parameterNumber":3,"parameterNumberName":"V-component_of_WINDS"},"data":[0,0,0,0,0,0,0,0,0,0,0,0,0,0,0,0,0,0,0,0,0,0,0,0,0,0,0,0,0,0,0,0,0,0,0,0,0,0,0,0,0,0,0,0,0,0,0,0,0,0,0,0,0,0,0,0,0,0,1.1752,1.1752,0,1.1757,1.1757,1.1757,1.1782,1.1782,1.1783,1.1784,1.1786,1.1785,1.1785,0,0,0,0,0,0,0,0,0,0,0,0,0,1.176,1.176,1.1752,1.1752,1.1752,1.1757,1.1757,1.1757,1.1782,1.1782,1.1783,1.1784,1.1786,1.1785,1.1785,0,0,0,0,0,0,0,0,0,0,0,0,0,1.176,1.176,1.1752,1.1765,1.1766,1.1757,1.1757,1.1757,1.1782,1.1783,1.1783,1.1784,1.1786,1.1785,1.1785,1.1763,0,0,1.1783,1.1782,0,0,0,0,0,0,0,0,1.176,1.176,1.1763,1.1764,1.1765,1.177,1.1761,1.1759,1.1781,1.1776,1.1784,1.1785,1.178,1.1779,1.1778,1.1763,1.1763,1.1782,1.1782,1.1782,1.1781,0,0,0,0,0,0,0,1.176,1.176,1.1754,1.1763,1.1764,1.177,1.1771,1.1761,1.1772,1.1776,1.1778,1.1778,1.178,1.1779,1.1779,1.1763,1.1782,1.1782,1.1781,1.1781,1.173,1.173,0,0,0,0,0,0,1.1759,1.1759,1.1753,1.1754,1.1765,1.1769,1.177,1.1767,1.1773,1.1774,1.1778,1.178,1.178,1.1779,1.1779,1.1754,1.1782,1.1781,1.1781,1.1731,1.173,1.1729,0,0,0,0,0,0,1.1759,1.1758,1.1753,1.1757,1.1757,1.1768,1.1765,1.1767,1.1766,1.1774,1.1776,1.1774,1.1781,1.178,1.1767,1.1754,1.1781,1.178,1.1732,1.1731,1.173,1.1704,0,0,0,0,0,0,1.1759,1.1758,1.175,1.1757,1.1757,1.1742,1.1764,1.1766,1.1765,1.1767,1.1771,1.1773,1.1781,1.1768,1.1766,1.1754,1.1779,1.1734,1.1732,1.173,1.1706,1.1702,1.1698,0,0,0,0,0,1.1759,1.1741,1.1749,1.1748,1.1747,1.1741,1.1741,1.1752,1.1764,1.1756,1.1761,1.1773,1.1756,1.1766,1.1765,1.1752,1.1734,1.1732,1.173,1.1707,1.1702,1.1698,0,0,0,0,0,0,1.1731,1.1742,1.1751,1.1735,1.1737,1.1745,1.1735,1.1746,1.1744,1.1746,1.1759,1.176,1.1745,1.1747,1.1758,1.1731,1.1747,1.1745,1.173,1.1726,1.1722,1.1722,1.1779,0,0,0,0,0,1.1723,1.1718,1.1728,1.1713,1.1713,1.1724,1.1722,1.1731,1.1732,1.1733,1.1737,1.1738,1.1733,1.173,1.1726,1.1706,1.1708,1.1697,1.1693,1.169,1.1687,1.1678,1.1674,1.1723,1.1723,1.1723,0,0,1.1706,1.1712,1.1707,1.1707,1.171,1.1704,1.1724,1.1717,1.1712,1.1731,1.172,1.1724,1.1725,1.1709,1.1703,1.1711,1.1675,1.1687,1.1685,1.1684,1.1676,1.1671,1.1667,1.1721,1.1721,1.1722,0,0,1.1672,1.1676,1.1665,1.1667,1.1671,1.1679,1.1676,1.1683,1.1686,1.1676,1.169,1.1685,1.1676,1.1677,1.1676,1.1645,1.1655,1.1643,1.1623,1.1614,1.161,1.1607,1.1596,1.1592,1.1641,1.1641,1.1641,0,1.165,1.1643,1.1657,1.1649,1.1649,1.1667,1.1656,1.1657,1.1659,1.1658,1.1668,1.1658,1.166,1.1646,1.1638,1.1637,1.1634,1.1642,1.161,1.1607,1.1604,1.1594,1.1589,1.1639,1.1639,1.1639,1.164,0,1.1616,1.1611,1.1601,1.1604,1.1603,1.1593,1.1605,1.1602,1.1611,1.1617,1.1606,1.161,1.1608,1.1605,1.1613,1.1591,1.1597,1.1608,1.1624,1.1597,1.1588,1.1584,1.1637,1.1637,1.1638,1.1638,0,0,1.1563,1.1576,1.1572,1.1575,1.1581,1.1577,1.1568,1.1567,1.1564,1.1565,1.1558,1.1551,1.1562,1.1562,1.157,1.1562,1.1538,1.1575,1.1575,1.1568,1.1515,1.1507,1.1502,1.1546,1.1545,1.1544,1.1515,0,1.1532,1.1518,1.1532,1.1515,1.1511,1.1529,1.1522,1.1525,1.1531,1.1527,1.1534,1.1529,1.1544,1.1543,1.1537,1.1543,1.1528,1.1545,1.1539,1.1538,1.1538,1.1497,1.1488,1.1461,1.1512,1.1511,1.1511,0,1.1493,1.1494,1.1478,1.1487,1.1485,1.1478,1.1479,1.1476,1.148,1.1485,1.1485,1.1497,1.1488,1.1505,1.1493,1.1505,1.1503,1.1506,1.1505,1.1505,1.1523,1.1496,1.1452,1.1448,1.1505,1.1506,1.1506,0,1.1457,1.1454,1.1444,1.1446,1.1456,1.1451,1.1455,1.146,1.1459,1.1459,1.1459,1.1458,1.1457,1.1456,1.1467,1.1478,1.1454,1.1471,1.1458,1.1458,1.1452,1.1452,1.1407,1.1451,1.1451,1.1451,1.1451,0,1.142,1.1409,1.1428,1.1422,1.1411,1.1426,1.1415,1.142,1.1425,1.142,1.1436,1.1431,1.1445,1.1442,1.145,1.144,1.1439,1.1443,1.1445,1.1441,1.1441,1.144,1.1442,1.145,1.145,1.145,1.1451,0,1.1377,1.139,1.138,1.1392,1.1394,1.1386,1.1395,1.139,1.1398,1.1391,1.1391,1.1403,1.14,1.1411,1.1408,1.1414,1.1399,1.1405,1.1398,1.14,1.1386,1.1387,1.1339,1.1334,1.1381,1.138,1.138,0,1.1353,1.1345,1.1356,1.1355,1.1359,1.1356,1.1356,1.137,1.1369,1.1374,1.1368,1.1367,1.1366,1.136,1.1368,1.1367,1.1373,1.1356,1.1372,1.1369,1.1373,1.1373,1.1373,1.1352,1.1352,1.1351,1.1351,0,1.1308,1.1315,1.1315,1.1317,1.1317,1.1319,1.1321,1.1319,1.1335,1.1333,1.1331,1.1331,1.133,1.1328,1.1329,1.1332,1.1344,1.1346,1.1343,1.1339,1.1335,1.1337,1.1389,1.1347,1.1347,1.1347,1.1347,1.1348,1.1274,1.1269,1.1276,1.1276,1.128,1.1283,1.1279,1.1287,1.1286,1.1287,1.1296,1.1292,1.1297,1.13,1.1303,1.13,1.1307,1.1302,1.1301,1.13,1.1298,1.1336,1.13,1.13,1.13,1.13,1.13,0,1.1231,1.1237,1.1236,1.1241,1.124,1.1253,1.1258,1.1256,1.1253,1.1257,1.1257,1.1255,1.1254,1.1263,1.1263,1.1259,1.1264,1.1258,1.1258,1.1259,1.1291,1.1294,1.1254,1.1254,1.1254,1.1254,1.1254,1.1254,1.1208,1.12,1.1208,1.1203,1.1209,1.1207,1.1208,1.1211,1.1215,1.1212,1.1212,1.1218,1.1224,1.1225,1.1225,1.1227,1.1226,1.1218,1.1223,1.1252,1.1257,1.1261,1.1264,1.1218,1.1218,1.1191,1.1191,1.1191]}]]